Home   Weather   Aqtobe   Past weeks

Flag for Kazakhstan Past Weather in Aqtobe, Kazakhstan — Yesterday and Last 2 Weeks

Now
61 °F

Sunny.


Feels Like: 61 °F
Forecast: 42 / 69 °F
Wind: 13 mph from Northwest

Location: Aktjubinsk

Current Time: Apr 28, 2017 at 11:45:40 am

Latest Report: Apr 28, 2017 at 11:00 am


Visibility: 10 mi

Pressure: 30.54 "Hg

Humidity: 27%

Dew Point: 27 °F

Location of AqtobeLocation

Past Weather in Aqtobe — Graph

°F

Aqtobe Temperature Yesterday

Maximum temperature yesterday: 64 °F (at 4:30 pm)
Minimum temperature yesterday: 34 °F (at 6:00 am)
Average temperature yesterday: 50 °F

High & Low Weather Summary for the Past Weeks

 TemperatureHumidityPressure
High75 °F (Apr 20, 1:30 pm)100% (Apr 14, 2:00 am)30.54 "Hg (Apr 14, 2:00 am)
Low27 °F (Apr 22, 5:30 am)15% (Apr 20, 1:30 pm)29.33 "Hg (Apr 15, 12:00 pm)
Average49 °F63%29.99 "Hg
* Reported Apr 13 10:00 am — Apr 28 10:30 am, Aqtobe, Weather by CustomWeather, © 2017

Note: Actual official high and low records may vary slightly from our data, if they occured in-between our weather recording intervals... More about our weather records

Advertising

Aqtobe Weather History for the Previous 24 Hours

Scroll right to see more
 ConditionsComfort  
Time TempWeatherWind HumidityBarometerVisibility
10:30 am
Fri, Apr 28
59 °FSunny.15 mph34%30.54 "Hg10 mi
10:00 am57 °FSunny.13 mph33%30.54 "Hg10 mi
9:30 am57 °FSunny.15 mph33%30.54 "Hg10 mi
9:00 am55 °FSunny.13 mph41%30.54 "Hg10 mi
8:30 am54 °FSunny.13 mph47%30.54 "Hg10 mi
8:00 am52 °FSunny.10 mph50%30.54 "Hg10 mi
7:30 am50 °FSunny.8 mph54%30.54 "Hg10 mi
7:00 am46 °FSunny.No wind62%30.54 "Hg10 mi
6:30 am45 °FSunny.1 mph66%30.54 "Hg10 mi
6:00 am43 °FSunny.3 mph66%30.51 "Hg10 mi
5:30 am45 °FClear.6 mph61%30.51 "Hg10 mi
5:00 am43 °FClear.3 mph66%30.51 "Hg10 mi
4:30 am41 °FClear.3 mph70%30.51 "Hg10 mi
4:00 am45 °FClear.3 mph66%30.51 "Hg10 mi
3:30 am45 °FClear.6 mph66%30.51 "Hg10 mi
3:00 am45 °FClear.No wind66%30.51 "Hg10 mi
2:30 am45 °FClear.No wind66%30.51 "Hg10 mi
2:00 am45 °FClear.3 mph66%30.51 "Hg10 mi
1:30 am46 °FClear.6 mph62%30.51 "Hg10 mi
1:00 am46 °FClear.6 mph62%30.51 "Hg10 mi
12:30 am48 °FClear.8 mph62%30.48 "Hg10 mi
12:00 am48 °FClear.10 mph62%30.48 "Hg10 mi
11:30 pm
Thu, Apr 27
48 °FClear.10 mph62%30.48 "Hg10 mi
11:00 pm48 °FClear.6 mph62%30.48 "Hg10 mi
10:30 pm50 °FClear.8 mph58%30.48 "Hg10 mi
10:00 pm50 °FClear.8 mph58%30.48 "Hg10 mi
9:30 pm52 °FClear.8 mph50%30.48 "Hg10 mi
9:00 pm52 °FClear.6 mph50%30.48 "Hg10 mi
8:30 pm54 °FClear.8 mph47%30.48 "Hg10 mi
8:00 pm57 °FSunny.10 mph39%30.48 "Hg10 mi
7:30 pm59 °FSunny.13 mph34%30.48 "Hg10 mi
7:00 pm61 °FSunny.17 mph31%30.48 "Hg10 mi
6:30 pm61 °FSunny.20 mph29%30.48 "Hg10 mi
5:30 pm61 °FSunny.17 mph29%30.48 "Hg10 mi
5:00 pm63 °FSunny.17 mph27%30.48 "Hg10 mi
4:30 pm64 °FSunny.20 mph26%30.48 "Hg10 mi
3:30 pm61 °FSunny.15 mph27%30.48 "Hg10 mi
3:00 pm61 °FSunny.17 mph27%30.48 "Hg10 mi
2:30 pm61 °FPassing clouds.15 mph27%30.48 "HgN/A
2:00 pm59 °FSunny.13 mph27%30.51 "Hg10 mi
1:30 pm59 °FPassing clouds.15 mph29%30.51 "HgN/A
1:00 pm57 °FPassing clouds.13 mph29%30.51 "HgN/A
12:30 pm57 °FSunny.17 mph31%30.51 "Hg10 mi
12:00 pm57 °FPassing clouds.15 mph31%30.51 "HgN/A
11:30 am55 °FPassing clouds.15 mph33%30.51 "HgN/A
11:00 am54 °FSunny.13 mph41%30.51 "Hg10 mi
Weather by CustomWeather, © 2017

See weather overviewHow to use our weather pages